QPF
0.00 0.00 0.00 0.00 0.00 0.00 0.00 0.00 0.00 0.00 0.00 0.00 0.00 0.00 0.00 0.00 0.00 0.00 0.00 0.00 0.00 0.00 0.00 0.00 0.00 0.00 0.00 0.00 0.00 0.00 0.00 0.00 0.00 0.00 0.00 0.00 0.00 0.00 0.00 0.00 0.00 0.00 0.00 0.00 0.00
0.00 0.00 0.00 0.00 0.00 0.00 0.00 0.00 0.00 0.00 0.00 0.00 0.00 0.00 0.00 0.00 0.00 0.00 0.00 0.00 0.00 0.00 0.00 0.00 0.00 0.00 0.00 0.00 0.00 0.00 0.00 0.00 0.00 0.00 0.00 0.00 0.00 0.00 0.00 0.00 0.00 0.00 0.00 0.00 0.00
0.00 0.00 0.00 0.00 0.00 0.00 0.00 0.00 0.00 0.00 0.00 0.00 0.00 0.00 0.00 0.00 0.00 0.00 0.00 0.00 0.00 0.00 0.00 0.00 0.00 0.00 0.00 0.00 0.00 0.00 0.00 0.00 0.00 0.00 0.00 0.00 0.00 0.00 0.00 0.00 0.00 0.00 0.00 0.00 0.00
0.00 0.00 0.00 0.00 0.00 0.00 0.00 0.00 0.00 0.00 0.00 0.00 0.00 0.00 0.00 0.00 0.00 0.00 0.00 0.00 0.00 0.00 0.00 0.00 0.00 0.00 0.00 0.00 0.00 0.00 0.00 0.00 0.00 0.00 0.00 0.00 0.00 0.00 0.00 0.00 0.00 0.00 0.00 0.00 0.00
0.00 0.00 0.00 0.00 0.00 0.00 0.00 0.00 0.00 0.00 0.00 0.00 0.00 0.00 0.00 0.00 0.00 0.00 0.00 0.00 0.00 0.00 0.00 0.00 0.00 0.00 0.00 0.00 0.00 0.00 0.00 0.00 0.00 0.00 0.00 0.00 0.00 0.00 0.00 0.00 0.00 0.00 0.00 0.00 0.00
0.00 0.00 0.00 0.00 0.00 0.00 0.00 0.00 0.00 0.00 0.00 0.00 0.00 0.00 0.00 0.00 0.00 0.00 0.00 0.00 0.00 0.00 0.00 0.00 0.00 0.00 0.00 0.00 0.00 0.00 0.00 0.00 0.00 0.00 0.00 0.00 0.00 0.00 0.00 0.00 0.00 0.00 0.00 0.00 0.00
0.00 0.00 0.00 0.00 0.00 0.00 0.00 0.00 0.00 0.00 0.00 0.00 0.00 0.00 0.00 0.00 0.00 0.00 0.00 0.00 0.00 0.00 0.00 0.00 0.00 0.00 0.00 0.00 0.00 0.00 0.00 0.00 0.00 0.00 0.00 0.00 0.01 0.00 0.00 0.00 0.00 0.00 0.00 0.00 0.00
0.00 0.00 0.00 0.00 0.00 0.00 0.00 0.00 0.00 0.00 0.00 0.00 0.00 0.00 0.00 0.00 0.00 0.00 0.00 0.00 0.00 0.00 0.00 0.00 0.00 0.00 0.00 0.00 0.00 0.00 0.00 0.00 0.00 0.00 0.00 0.00 0.00 0.00 0.00 0.00 0.00 0.00 0.00 0.00 0.00
0.00 0.00 0.00 0.00 0.00 0.00 0.00 0.00 0.00 0.00 0.00 0.00 0.00 0.00 0.00 0.00 0.00 0.00 0.00 0.00 0.00 0.00 0.00 0.00 0.00 0.00 0.00 0.00 0.00 0.00 0.00 0.00 0.00 0.00 0.00 0.00 0.00 0.00 0.00 0.00 0.00 0.00 0.00 0.00 0.00
0.00 0.00 0.00 0.00 0.00 0.00 0.00 0.00 0.00 0.00 0.00 0.00 0.00 0.00 0.00 0.00 0.00 0.00 0.00 0.00 0.00 0.00 0.00 0.00 0.00 0.00 0.00 0.00 0.00 0.00 0.00 0.00 0.00 0.00 0.00 0.00 0.00 0.00 0.00 0.00 0.00 0.00 0.00 0.00 0.00
0.00 0.00 0.00 0.00 0.00 0.00 0.00 0.00 0.00 0.00 0.00 0.00 0.00 0.00 0.00 0.00 0.00 0.00 0.00 0.00 0.00 0.00 0.00 0.00 0.00 0.00 0.00 0.00 0.00 0.00 0.00 0.00 0.00 0.00 0.00 0.00 0.00 0.00 0.00 0.00 0.00 0.00 0.00 0.00 0.00
0.00 0.00 0.00 0.00 0.00 0.00 0.00 0.00 0.00 0.00 0.00 0.00 0.00 0.00 0.00 0.00 0.00 0.00 0.00 0.00 0.00 0.00 0.00 0.00 0.00 0.00 0.00 0.00 0.00 0.00 0.00 0.00 0.00 0.00 0.00 0.00 0.00 0.00 0.00 0.00 0.00 0.00 0.00 0.00 0.00
0.00 0.00 0.00 0.00 0.00 0.00 0.00 0.00 0.00 0.00 0.00 0.00 0.00 0.00 0.00 0.00 0.00 0.00 0.00 0.00 0.00 0.00 0.00 0.00 0.00 0.00 0.00 0.00 0.00 0.00 0.00 0.00 0.00 0.00 0.00 0.00 0.00 0.00 0.00 0.00 0.00 0.00 0.00 0.00 0.00
0.00 0.00 0.00 0.00 0.00 0.00 0.00 0.00 0.00 0.00 0.00 0.00 0.00 0.00 0.00 0.00 0.00 0.00 0.00 0.00 0.00 0.00 0.00 0.00 0.00 0.00 0.00 0.00 0.00 0.00 0.00 0.00 0.00 0.00 0.00 0.00 0.00 0.00 0.00 0.00 0.00 0.00 0.00 0.00 0.00
0.00 0.00 0.00 0.00 0.00 0.00 0.00 0.00 0.00 0.00 0.00 0.00 0.00 0.00 0.00 0.00 0.00 0.00 0.00 0.00 0.00 0.00 0.00 0.00 0.00 0.00 0.00 0.00 0.00 0.00 0.00 0.00 0.00 0.00 0.00 0.00 0.00 0.00 0.00 0.00 0.00 0.00 0.00 0.00 0.00
0.00 0.00 0.00 0.00 0.00 0.00 0.00 0.00 0.00 0.00 0.00 0.00 0.00 0.00 0.00 0.00 0.00 0.00 0.00 0.00 0.00 0.00 0.00 0.00 0.00 0.00 0.00 0.00 0.00 0.00 0.00 0.00 0.00 0.00 0.00 0.00 0.00 0.00 0.00 0.00 0.00 0.00 0.00 0.00 0.00
0.00 0.00 0.00 0.00 0.00 0.00 0.00 0.00 0.00 0.00 0.00 0.00 0.00 0.00 0.00 0.00 0.00 0.00 0.00 0.00 0.00 0.00 0.00 0.00 0.00 0.00 0.00 0.00 0.00 0.00 0.00 0.00 0.00 0.00 0.00 0.00 0.00 0.00 0.00 0.00 0.00 0.00 0.00 0.00 0.00
0.00 0.00 0.00 0.00 0.00 0.00 0.00 0.00 0.00 0.00 0.00 0.00 0.00 0.00 0.00 0.00 0.00 0.00 0.00 0.00 0.00 0.00 0.00 0.00 0.00 0.00 0.00 0.00 0.00 0.00 0.00 0.00 0.00 0.00 0.00 0.00 0.00 0.00 0.00 0.00 0.00 0.00 0.00 0.00 0.00
0.00 0.00 0.00 0.00 0.00 0.00 0.00 0.00 0.00 0.00 0.00 0.00 0.00 0.00 0.00 0.00 0.00 0.00 0.00 0.00 0.00 0.00 0.00 0.00 0.00 0.00 0.00 0.00 0.00 0.00 0.00 0.00 0.00 0.00 0.00 0.00 0.00 0.00 0.00 0.00 0.00 0.00 0.00 0.00 0.00
0.00 0.00 0.00 0.00 0.00 0.00 0.00 0.00 0.00 0.00 0.00 0.00 0.00 0.00 0.00 0.00 0.00 0.00 0.00 0.00 0.00 0.00 0.00 0.00 0.00 0.00 0.00 0.00 0.00 0.00 0.00 0.00 0.00 0.00 0.00 0.00 0.00 0.00 0.00 0.00 0.00 0.00 0.00 0.00 0.00
0.00 0.00 0.00 0.00 0.00 0.00 0.00 0.00 0.00 0.00 0.00 0.00 0.00 0.00 0.00 0.00 0.00 0.00 0.00 0.00 0.00 0.00 0.00 0.00 0.00 0.00 0.00 0.00 0.00 0.00 0.00 0.00 0.00 0.00 0.00 0.00 0.00 0.00 0.00 0.00 0.00 0.00 0.00 0.00 0.00
0.00 0.00 0.00 0.00 0.00 0.00 0.00 0.00 0.00 0.00 0.00 0.00 0.00 0.00 0.00 0.00 0.00 0.00 0.00 0.00 0.00 0.00 0.00 0.00 0.00 0.00 0.00 0.00 0.00 0.00 0.00 0.00 0.00 0.00 0.00 0.00 0.00 0.00 0.00 0.00 0.00 0.00 0.00 0.00 0.00
0.00 0.00 0.00 0.00 0.00 0.00 0.00 0.00 0.00 0.00 0.00 0.00 0.00 0.00 0.00 0.00 0.00 0.00 0.00 0.00 0.00 0.00 0.00 0.00 0.00 0.00 0.00 0.00 0.00 0.00 0.00 0.00 0.00 0.00 0.00 0.00 0.00 0.00 0.00 0.00 0.00 0.00 0.00 0.00 0.00
0.00 0.00 0.00 0.00 0.00 0.00 0.00 0.00 0.00 0.00 0.00 0.00 0.00 0.00 0.00 0.00 0.00 0.00 0.00 0.00 0.00 0.00 0.00 0.00 0.00 0.00 0.00 0.00 0.00 0.00 0.00 0.00 0.00 0.00 0.00 0.00 0.00 0.00 0.00 0.00 0.00 0.00 0.00 0.00 0.00
0.01 0.00 0.00 0.00 0.00 0.00 0.00 0.01 0.00 0.00 0.00 0.00 0.00 0.00 0.00 0.00 0.00 0.00 0.00 0.00 0.00 0.00 0.00 0.00 0.00 0.00 0.00 0.00 0.00 0.00 0.00 0.00 0.00 0.00 0.00 0.00 0.00 0.00 0.00 0.00 0.00 0.00 0.00 0.00 0.00
0.01 0.01 0.01 0.00 0.00 0.00 0.00 0.00 0.03 0.00 0.00 0.00 0.00 0.00 0.00 0.00 0.00 0.00 0.00 0.00 0.00 0.00 0.00 0.00 0.00 0.00 0.00 0.00 0.00 0.00 0.00 0.00 0.00 0.00 0.00 0.00 0.00 0.00 0.00 0.00 0.00 0.00 0.00 0.00 0.00
0.02 0.03 0.04 0.01 0.00 0.00 0.00 0.00 0.01 0.06 0.02 0.00 0.00 0.00 0.00 0.00 0.00 0.00 0.00 0.00 0.00 0.00 0.00 0.00 0.00 0.00 0.00 0.00 0.00 0.00 0.00 0.00 0.00 0.00 0.00 0.00 0.00 0.00 0.00 0.00 0.00 0.00 0.00 0.00 0.00
MSLP
1019.05 1018.51 1018.02 1017.54 1017.03 1016.46 1015.95 1015.48 1015.00 1014.48 1014.01 1013.71 1013.40 1013.00 1012.44 1011.97 1011.10 1010.66 1009.35 1006.63 1006.86 1007.35 1007.59 1008.24 1008.60 1008.47 1008.79 1009.56 1010.05 1009.84 1009.29 1008.00 1006.69 1005.96 1006.02 1006.63 1006.70 1007.55 1007.63 1008.31 1009.34 1009.29 1009.82 1011.08 1011.84
1019.10 1018.56 1018.03 1017.46 1016.93 1016.42 1015.83 1015.32 1014.81 1014.33 1013.80 1013.35 1013.12 1012.73 1012.30 1011.89 1011.08 1008.76 1004.75 1004.80 1005.44 1006.40 1007.19 1007.64 1007.74 1008.05 1008.65 1008.86 1009.40 1009.23 1008.81 1007.02 1004.85 1004.50 1004.89 1004.89 1005.74 1006.36 1007.73 1008.86 1009.26 1009.58 1010.66 1011.27 1011.81
1019.06 1018.50 1017.88 1017.30 1016.69 1016.15 1015.60 1015.07 1014.62 1014.10 1013.63 1013.16 1012.73 1012.42 1011.99 1011.81 1010.59 1005.70 1003.28 1003.43 1004.57 1005.53 1006.23 1006.74 1006.88 1007.35 1008.14 1008.33 1008.67 1008.14 1007.04 1006.00 1004.45 1004.21 1004.12 1004.75 1005.55 1005.90 1007.09 1008.27 1007.96 1009.13 1010.17 1011.02 1011.62
1018.98 1018.34 1017.72 1017.07 1016.44 1015.78 1015.18 1014.62 1014.19 1013.82 1013.30 1012.90 1012.52 1012.08 1011.68 1011.59 1008.63 1003.71 1003.05 1002.62 1004.00 1005.21 1006.07 1006.38 1006.72 1007.13 1007.13 1006.96 1006.73 1006.67 1005.58 1005.20 1003.68 1003.24 1003.77 1004.42 1004.96 1005.59 1005.63 1006.26 1007.36 1008.07 1008.86 1010.10 1011.21
1018.80 1018.11 1017.37 1016.63 1015.98 1015.41 1014.83 1014.25 1013.62 1013.25 1012.98 1012.51 1012.24 1011.93 1011.37 1010.39 1006.22 1003.28 1003.33 1003.44 1004.35 1005.17 1005.48 1005.95 1006.10 1006.28 1006.27 1005.44 1005.50 1004.85 1004.55 1004.10 1003.37 1002.64 1002.73 1003.69 1004.20 1004.85 1005.68 1005.99 1007.65 1008.61 1009.37 1009.97 1010.68
1018.41 1017.77 1017.09 1016.32 1015.55 1014.82 1014.12 1013.57 1013.02 1012.46 1012.17 1012.02 1011.89 1011.86 1011.37 1008.66 1003.57 1002.72 1002.99 1003.73 1004.05 1004.62 1004.87 1005.22 1005.14 1004.99 1005.33 1004.63 1004.49 1003.68 1003.35 1002.99 1002.85 1002.33 1002.66 1003.20 1004.00 1004.38 1005.47 1005.96 1007.43 1008.34 1009.08 1009.73 1010.29
1018.46 1017.65 1016.79 1016.02 1015.20 1014.40 1013.60 1012.79 1012.14 1011.62 1011.20 1011.18 1011.35 1011.42 1010.29 1004.86 1002.78 1002.67 1002.89 1002.99 1003.27 1003.76 1004.28 1004.27 1004.41 1004.77 1004.46 1004.41 1003.51 1003.34 1003.22 1002.12 1001.33 1001.07 1002.02 1002.85 1004.00 1004.52 1005.01 1005.89 1007.02 1008.00 1008.71 1009.12 1009.76
1018.47 1017.68 1016.76 1015.78 1014.87 1014.00 1013.05 1012.08 1011.06 1010.35 1009.83 1010.04 1010.63 1010.63 1007.95 1003.02 1002.46 1002.63 1002.59 1002.95 1002.95 1003.28 1003.25 1003.24 1003.78 1004.30 1004.46 1003.80 1003.42 1003.49 1003.14 1002.46 1001.21 1001.50 1001.92 1002.31 1004.40 1004.69 1004.59 1005.82 1006.87 1007.63 1008.30 1008.75 1009.11
1018.21 1017.42 1016.54 1015.57 1014.63 1013.70 1012.33 1011.13 1010.01 1009.21 1008.95 1009.46 1010.13 1009.83 1005.70 1002.23 1002.16 1001.02 1001.63 1001.97 1002.33 1002.50 1002.71 1002.61 1003.55 1004.15 1004.29 1004.43 1004.36 1004.11 1003.62 1002.91 1001.45 1001.81 1002.39 1003.02 1004.29 1004.32 1004.84 1005.47 1006.49 1006.91 1007.36 1007.88 1008.42
1018.04 1017.13 1016.21 1015.11 1014.08 1013.26 1011.84 1010.12 1009.12 1009.32 1009.29 1009.31 1008.95 1008.92 1003.99 1001.35 1000.40 1000.22 1000.51 1001.23 1001.91 1002.01 1002.67 1002.78 1003.44 1003.90 1004.33 1004.77 1004.46 1004.26 1003.85 1002.91 1002.18 1001.56 1002.40 1002.68 1003.32 1003.84 1004.60 1005.17 1005.81 1006.18 1006.68 1007.05 1007.16
1018.07 1017.15 1016.09 1014.80 1013.64 1012.77 1011.78 1010.41 1009.28 1008.98 1008.58 1007.58 1006.54 1004.87 1002.17 1000.69 999.83 999.58 999.76 1000.82 1001.52 1001.86 1002.57 1002.81 1003.46 1003.40 1003.87 1004.11 1004.06 1003.92 1003.67 1003.18 1001.62 1001.68 1002.28 1002.17 1002.53 1002.89 1003.74 1004.94 1005.49 1005.78 1006.19 1006.52 1006.48
1017.90 1016.97 1015.92 1014.55 1013.24 1012.34 1012.11 1011.38 1010.20 1009.95 1007.40 1005.21 1003.75 1002.84 1001.59 1001.28 1001.10 999.48 999.31 1000.51 1001.10 1001.69 1002.24 1002.91 1002.55 1003.01 1003.32 1003.41 1003.58 1003.49 1003.30 1002.50 1002.02 1001.78 1002.44 1002.35 1002.24 1002.57 1003.12 1003.37 1003.79 1004.73 1005.43 1005.72 1006.10
1017.65 1016.78 1015.79 1014.29 1012.48 1011.77 1011.94 1010.25 1009.36 1009.06 1007.77 1003.20 1001.26 1000.38 999.77 1000.60 1000.57 999.41 999.32 999.47 1000.25 1001.36 1001.65 1002.14 1001.81 1002.14 1002.54 1002.72 1002.91 1002.76 1002.69 1001.96 1002.45 1001.98 1002.26 1002.60 1003.02 1003.12 1003.51 1003.74 1003.79 1003.94 1003.96 1004.59 1004.85
1017.41 1016.63 1016.01 1014.83 1012.57 1012.79 1010.95 1009.53 1009.18 1008.78 1007.35 1002.48 999.81 997.76 997.82 998.56 998.78 997.94 998.15 998.54 999.39 1000.19 1001.20 1001.38 1001.23 1001.40 1001.51 1001.68 1002.16 1002.07 1001.63 1001.84 1002.41 1002.84 1002.78 1002.62 1003.11 1002.96 1002.86 1003.16 1003.08 1003.09 1003.51 1003.59 1004.02
1017.22 1016.50 1015.98 1016.01 1015.36 1013.72 1010.44 1009.66 1009.16 1008.40 1006.18 999.88 997.67 996.14 996.68 997.24 996.38 996.00 996.87 997.87 998.22 999.34 1000.56 999.78 999.86 1000.11 1000.35 1000.42 1000.97 1000.89 1001.68 1001.81 1002.33 1002.84 1003.24 1002.85 1003.16 1001.93 1001.93 1002.34 1002.17 1002.08 1001.99 1002.38 1002.81
1017.06 1016.13 1015.71 1015.12 1015.04 1012.15 1010.95 1010.26 1009.40 1008.89 1004.83 999.57 996.89 996.73 997.46 997.20 996.30 995.20 996.30 997.44 997.69 998.77 999.04 999.26 999.13 999.27 999.19 999.79 1000.25 1000.71 1001.46 1001.75 1002.17 1002.76 1002.79 1002.33 1002.32 1001.35 1000.84 1000.09 1000.25 1000.43 1000.55 1000.91 1001.73
1017.02 1016.11 1015.00 1014.85 1013.03 1011.40 1011.14 1010.57 1010.04 1007.49 1002.83 1000.00 999.37 999.00 997.90 997.19 996.91 996.39 996.42 997.05 997.18 998.27 998.40 998.73 998.57 998.32 998.50 999.32 999.65 1000.22 1001.53 1002.34 1002.53 1002.50 1001.54 1001.53 1001.51 999.78 998.68 998.26 998.06 998.49 998.87 999.47 1000.16
1016.60 1015.73 1013.31 1012.44 1011.79 1012.13 1011.91 1011.37 1009.26 1005.29 1003.12 1001.28 1001.31 999.77 999.01 998.56 997.53 996.78 997.03 996.93 997.07 997.61 998.28 998.78 998.21 997.71 997.27 997.74 998.64 999.42 1000.41 1001.22 1002.37 1002.25 1001.93 1000.90 1000.07 997.98 997.28 996.66 996.47 996.41 996.85 998.08 999.15
1016.45 1014.69 1013.06 1010.74 1010.47 1011.94 1012.28 1010.93 1007.74 1005.66 1004.71 1003.65 1002.26 1001.38 1000.40 999.61 999.80 998.54 997.15 996.55 996.40 996.88 997.91 998.21 997.56 996.92 996.79 996.70 997.41 998.28 999.16 1000.06 1001.45 1001.90 1001.69 999.97 998.53 997.03 996.45 996.27 995.88 996.08 996.69 997.05 997.76
1017.04 1015.65 1012.61 1010.54 1010.59 1011.46 1011.96 1009.89 1007.73 1005.88 1005.41 1004.88 1004.65 1003.38 1003.23 1002.57 1002.15 1000.89 999.04 996.73 996.27 996.35 996.92 997.09 997.18 996.30 995.93 996.11 996.26 996.81 997.96 999.51 1000.25 1000.77 1000.81 999.42 998.12 996.17 995.95 995.54 995.23 995.11 995.32 995.63 996.25
1017.18 1016.12 1010.68 1010.24 1009.77 1010.85 1010.77 1009.64 1007.83 1006.07 1006.31 1006.10 1005.68 1005.55 1004.74 1004.39 1003.62 1003.05 1000.87 998.51 997.30 996.62 996.38 996.65 997.14 996.19 995.65 995.10 995.32 996.14 996.81 997.84 998.61 999.34 999.43 998.95 995.78 995.27 995.12 995.11 994.95 994.35 993.66 994.09 994.48
1017.77 1016.65 1011.03 1011.08 1011.39 1010.97 1010.56 1009.24 1008.50 1007.33 1006.34 1006.51 1006.12 1005.68 1005.85 1005.48 1004.02 1003.40 1001.96 1001.18 998.86 999.55 999.01 997.53 996.58 995.77 994.77 993.88 993.98 994.67 995.42 996.64 997.71 998.36 998.08 997.06 992.75 994.01 994.16 994.37 993.99 993.37 993.44 993.15 993.22
1018.25 1016.25 1012.27 1012.07 1012.63 1012.38 1011.35 1010.03 1009.24 1008.24 1007.73 1007.11 1007.05 1006.82 1006.93 1006.63 1005.83 1003.77 1002.87 1001.73 1002.61 1001.57 1000.83 999.69 996.76 996.55 994.86 994.13 993.74 993.79 993.85 994.42 995.51 996.46 996.55 996.20 994.31 993.87 994.02 993.90 993.35 993.21 993.58 993.83 994.19
1018.59 1017.30 1014.35 1013.37 1013.74 1013.93 1012.96 1011.70 1010.47 1009.49 1008.55 1008.20 1007.97 1007.68 1007.75 1007.37 1006.90 1006.01 1004.92 1004.00 1004.08 1003.81 1002.66 1000.59 998.84 996.57 994.17 992.83 992.89 992.79 992.67 993.20 993.98 994.65 995.06 993.14 994.40 993.97 993.96 993.91 994.09 993.44 992.91 992.48 993.08
1018.46 1017.71 1016.24 1015.52 1014.75 1014.78 1014.15 1012.91 1011.71 1010.75 1009.41 1008.96 1008.82 1008.79 1008.74 1008.19 1007.41 1006.52 1006.40 1006.17 1005.29 1004.56 1004.22 1003.34 1000.66 997.86 995.23 993.84 991.93 991.11 991.28 991.74 991.84 992.07 992.27 992.46 993.45 993.86 993.76 993.54 993.29 992.87 993.38 992.40 992.68
1018.23 1017.88 1017.02 1016.32 1015.58 1015.03 1014.02 1013.11 1012.55 1012.05 1011.40 1010.05 1009.57 1009.37 1009.16 1009.01 1008.61 1007.79 1007.51 1007.35 1006.77 1005.64 1005.51 1004.19 1002.33 999.23 995.70 993.10 991.50 990.24 990.21 989.86 989.99 990.83 991.17 991.53 992.27 992.20 992.18 992.31 992.40 992.22 992.42 992.53 991.36
1017.68 1017.35 1017.02 1016.35 1015.71 1015.36 1014.38 1013.66 1013.04 1012.59 1011.37 1010.57 1009.86 1009.64 1009.13 1008.68 1008.20 1007.77 1007.30 1007.12 1006.93 1006.96 1005.91 1005.27 1003.16 1000.84 996.80 993.32 991.23 990.22 987.16 988.52 989.12 989.65 990.24 990.68 991.56 991.50 991.81 991.72 991.70 991.37 991.92 991.95 991.85
Thickness
5739 5742 5745 5748 5751 5754 5757 5759 5762 5765 5767 5769 5772 5776 5782 5787 5795 5798 5802 5824 5824 5823 5822 5815 5810 5813 5814 5796 5797 5801 5780 5782 5793 5800 5802 5813 5808 5817 5824 5806 5802 5807 5802 5799 5800
5737 5740 5744 5747 5750 5753 5757 5760 5762 5765 5768 5771 5773 5776 5780 5785 5792 5804 5845 5845 5838 5831 5820 5810 5804 5809 5799 5798 5797 5790 5769 5790 5824 5824 5812 5822 5815 5819 5806 5797 5796 5798 5800 5801 5799
5735 5739 5743 5746 5750 5754 5757 5760 5763 5766 5768 5771 5774 5776 5780 5782 5789 5822 5856 5854 5844 5837 5828 5822 5817 5811 5795 5797 5795 5795 5781 5806 5825 5831 5834 5820 5813 5825 5806 5793 5808 5797 5796 5797 5795
5733 5738 5742 5746 5750 5754 5758 5761 5764 5766 5770 5772 5774 5778 5781 5779 5776 5842 5856 5859 5847 5837 5823 5816 5809 5797 5798 5800 5814 5793 5810 5816 5832 5841 5834 5820 5823 5817 5826 5824 5822 5816 5813 5803 5794
5732 5737 5742 5747 5751 5755 5758 5762 5766 5769 5770 5774 5775 5777 5782 5781 5803 5848 5850 5850 5842 5833 5821 5813 5804 5802 5795 5812 5819 5812 5815 5823 5837 5847 5844 5839 5826 5818 5820 5834 5822 5814 5808 5800 5795
5732 5736 5741 5746 5751 5756 5761 5765 5768 5772 5775 5775 5776 5776 5778 5777 5842 5851 5851 5843 5839 5830 5823 5819 5817 5823 5807 5814 5813 5829 5826 5828 5835 5842 5846 5835 5831 5831 5826 5834 5816 5811 5806 5803 5799
5727 5733 5739 5744 5750 5756 5762 5768 5773 5777 5780 5780 5779 5778 5780 5813 5848 5849 5847 5843 5843 5836 5823 5830 5829 5816 5821 5813 5833 5830 5815 5831 5841 5849 5840 5840 5815 5816 5835 5832 5816 5810 5809 5810 5805
5722 5728 5735 5743 5749 5755 5763 5770 5778 5784 5788 5787 5782 5780 5787 5845 5850 5844 5846 5837 5843 5841 5837 5840 5833 5822 5816 5831 5825 5815 5817 5799 5839 5842 5844 5837 5788 5822 5840 5828 5812 5810 5810 5809 5810
5720 5726 5732 5739 5747 5754 5764 5774 5783 5788 5790 5787 5781 5780 5795 5849 5839 5855 5849 5837 5837 5838 5840 5843 5826 5810 5813 5798 5784 5795 5783 5799 5817 5839 5833 5823 5795 5825 5837 5829 5812 5816 5814 5813 5814
5715 5721 5728 5737 5746 5752 5762 5777 5785 5783 5784 5783 5788 5779 5818 5832 5851 5856 5856 5845 5831 5829 5820 5818 5806 5791 5788 5775 5758 5776 5789 5803 5804 5835 5831 5818 5811 5824 5830 5822 5816 5819 5820 5819 5820
5709 5716 5723 5732 5742 5750 5756 5767 5776 5778 5782 5785 5791 5803 5827 5846 5859 5851 5856 5839 5831 5820 5792 5804 5782 5780 5785 5791 5800 5799 5796 5795 5822 5837 5817 5822 5821 5828 5830 5822 5818 5822 5822 5822 5826
5703 5710 5718 5727 5738 5746 5746 5753 5758 5758 5770 5801 5812 5819 5829 5833 5817 5838 5854 5822 5813 5795 5799 5787 5778 5795 5801 5800 5798 5797 5792 5800 5817 5832 5817 5816 5826 5831 5830 5831 5833 5828 5827 5829 5828
5695 5702 5711 5721 5735 5741 5738 5751 5759 5761 5758 5804 5820 5826 5830 5824 5814 5826 5836 5827 5812 5792 5792 5781 5795 5808 5800 5794 5790 5793 5790 5804 5800 5820 5822 5812 5802 5812 5823 5825 5832 5837 5843 5841 5837
5684 5690 5697 5707 5725 5721 5736 5751 5751 5756 5732 5785 5809 5835 5839 5833 5817 5847 5848 5833 5813 5799 5794 5789 5806 5799 5796 5791 5792 5769 5817 5817 5808 5794 5772 5812 5761 5800 5816 5814 5824 5835 5840 5845 5844
5673 5679 5683 5685 5687 5699 5730 5738 5743 5745 5702 5813 5821 5854 5841 5826 5839 5841 5851 5831 5809 5802 5794 5797 5802 5799 5793 5799 5805 5799 5812 5809 5808 5793 5785 5792 5770 5797 5822 5812 5818 5835 5849 5851 5853
5659 5666 5671 5675 5678 5701 5710 5718 5725 5704 5694 5782 5821 5815 5808 5817 5826 5841 5831 5832 5830 5804 5805 5805 5819 5810 5811 5813 5810 5819 5802 5801 5801 5789 5748 5786 5787 5782 5805 5829 5838 5847 5855 5860 5857
5642 5649 5657 5660 5669 5692 5693 5697 5683 5678 5756 5778 5761 5780 5796 5796 5803 5811 5809 5798 5794 5766 5781 5799 5801 5815 5819 5792 5805 5800 5773 5741 5742 5745 5745 5791 5775 5807 5835 5851 5859 5858 5862 5865 5868
5627 5633 5650 5655 5666 5665 5669 5668 5663 5716 5732 5750 5742 5761 5773 5784 5792 5798 5787 5785 5800 5788 5769 5762 5761 5800 5822 5806 5796 5784 5780 5749 5717 5723 5746 5788 5758 5809 5853 5867 5874 5882 5879 5873 5868
5607 5621 5630 5647 5653 5644 5638 5637 5669 5694 5702 5708 5725 5726 5737 5755 5753 5765 5779 5782 5799 5793 5764 5752 5769 5813 5815 5821 5812 5791 5765 5795 5755 5761 5743 5771 5799 5832 5850 5855 5866 5870 5871 5872 5874
5576 5585 5604 5624 5627 5621 5610 5633 5653 5677 5678 5684 5678 5700 5686 5701 5708 5723 5740 5784 5789 5799 5799 5782 5753 5796 5813 5814 5813 5797 5805 5766 5747 5735 5732 5758 5777 5799 5830 5846 5858 5867 5871 5876 5881
5540 5548 5591 5593 5601 5593 5594 5608 5638 5657 5650 5648 5651 5657 5674 5675 5687 5689 5716 5756 5775 5785 5797 5789 5766 5783 5796 5784 5789 5791 5781 5777 5779 5767 5750 5729 5781 5828 5837 5847 5849 5867 5883 5887 5890
5497 5502 5553 5556 5544 5555 5576 5590 5604 5614 5628 5622 5634 5647 5648 5654 5671 5678 5697 5715 5753 5745 5734 5761 5767 5759 5775 5809 5819 5806 5791 5779 5763 5746 5763 5785 5806 5856 5852 5857 5860 5869 5880 5892 5900
5453 5467 5509 5510 5493 5505 5532 5551 5560 5569 5578 5588 5595 5608 5615 5625 5635 5669 5681 5710 5689 5703 5709 5722 5745 5736 5748 5769 5783 5779 5802 5808 5773 5769 5768 5749 5781 5847 5846 5854 5865 5870 5876 5876 5880
5415 5425 5454 5462 5466 5469 5484 5505 5517 5534 5544 5554 5564 5576 5581 5594 5613 5622 5641 5662 5667 5673 5689 5705 5722 5738 5753 5776 5787 5773 5794 5799 5794 5774 5776 5788 5790 5826 5835 5844 5847 5858 5874 5884 5882
5398 5401 5419 5419 5433 5440 5452 5473 5485 5496 5513 5523 5528 5538 5545 5558 5578 5602 5614 5622 5644 5657 5659 5662 5679 5722 5744 5766 5790 5792 5792 5798 5790 5803 5785 5811 5785 5808 5829 5835 5849 5861 5859 5874 5877
5398 5400 5403 5416 5414 5421 5441 5459 5455 5461 5474 5494 5503 5514 5526 5533 5547 5567 5583 5595 5607 5630 5634 5645 5656 5682 5720 5762 5778 5781 5793 5802 5804 5805 5803 5800 5799 5827 5843 5844 5850 5858 5863 5858 5883
5402 5403 5404 5410 5409 5412 5423 5435 5447 5455 5465 5479 5487 5489 5506 5519 5531 5546 5567 5583 5593 5599 5615 5622 5638 5653 5680 5744 5765 5751 5794 5793 5798 5805 5804 5784 5806 5827 5829 5839 5845 5856 5853 5855 5865